Change the Weather History Date:

Monday, July 7, 2014

  Actual Average Record
Temperature  
Mean Temperature 65 °F 65 °F  
Max Temperature 75 °F 76 °F 97 °F (1988)
Min Temperature 55 °F 54 °F 40 °F (1997)
Degree Days  
Heating Degree Days 0 3  
Month to date heating degree days 22 21  
Since 1 June heating degree days 131 201  
Since 1 July heating degree days 22 21  
Cooling Degree Days 0 2  
Month to date cooling degree days 4 14  
Year to date cooling degree days 43 49  
Since 1 June cooling degree days 41 44  
Growing Degree Days 15 (Base 50)    
Moisture  
Dew Point 58 °F    
Average Humidity 77    
Maximum Humidity 100    
Minimum Humidity 53    
Precipitation  
Precipitation T in 0.09 in 1.62 in (1921)
Month to date precipitation 0.41 0.60  
Year to date precipitation 15.37 13.74  
Sea Level Pressure  
Sea Level Pressure 29.54 in    
Wind  
Wind Speed 8 mph (WNW)    
Max Wind Speed 20 mph    
Max Gust Speed 26 mph    
Visibility 6 miles    
Events Fog    
T = Trace of Precipitation, MM = Missing Value Source: NWS Daily Summary

Daily Weather History Graph

Daily Weather History Graph

Search for Another Location

Airport or City:

Trip Planner

Search our weather history database for the weather conditions in past years. The results will help you decide how hot, cold, wet, or windy it might be!

Date:

Astronomy

Jul. 07, 2014 Rise Set
Actual Time 5:52 AM EDT 9:31 PM EDT
Civil Twilight 5:14 AM EDT 10:10 PM EDT
Nautical Twilight 4:22 AM EDT 11:01 PM EDT
Astronomical Twilight 3:12 AM EDT 12:11 AM EDT
Moon 4:24 PM EDT (7/7) 1:56 AM EDT (7/7)
Length of Visible Light 16h 55m
Length of Day
15h 39m
Waxing Gibbous, 72% of the Moon is Illuminated
Jul 7
Waxing Gibbous
Jul 12
Full
Jul 18
Last Quarter
Jul 26
New
Aug 3
First Quarter

Hourly Weather History & Observations

Time (EDT) Temp. Dew Point Humidity Pressure Visibility Wind Dir Wind Speed Gust Speed Precip Events Conditions
12:41 AM 64.0 °F 62.1 °F 93% 29.55 in 2.5 mi Variable 3.5 mph - N/A   Overcast
12:55 AM 63.0 °F 62.1 °F 97% 29.53 in 2.0 mi ESE 4.6 mph - N/A   Overcast
1:11 AM 63.0 °F 61.0 °F 93% 29.53 in 1.5 mi ENE 4.6 mph - N/A   Overcast
1:55 AM 63.0 °F 61.0 °F 93% 29.51 in 1.2 mi Calm Calm - 0.00 in   Overcast
2:55 AM 63.0 °F 62.1 °F 97% 29.51 in 1.0 mi Calm Calm - N/A   Mist
3:13 AM 64.0 °F 62.1 °F 93% 29.52 in 0.8 mi Calm Calm - N/A   Mist
3:55 AM 63.0 °F 62.1 °F 97% 29.50 in 0.2 mi WNW 5.8 mph - N/A Fog Fog
4:34 AM 63.0 °F 62.1 °F 97% 29.51 in 1.8 mi WNW 6.9 mph - N/A   Overcast
4:38 AM 63.0 °F 62.1 °F 97% 29.51 in 3.0 mi WNW 9.2 mph - N/A   Overcast
4:55 AM 63.0 °F 61.0 °F 93% 29.51 in 4.0 mi West 10.4 mph - N/A   Overcast
5:03 AM 63.0 °F 61.0 °F 93% 29.52 in 4.0 mi WNW 8.1 mph - N/A   Overcast
5:09 AM 63.0 °F 61.0 °F 93% 29.52 in 4.0 mi West 8.1 mph - N/A   Overcast
5:55 AM 61.0 °F 59.0 °F 93% 29.51 in 5.0 mi WNW 11.5 mph - N/A   Overcast
6:18 AM 60.1 °F 57.9 °F 93% 29.53 in 1.8 mi West 9.2 mph - N/A   Overcast
6:32 AM 59.0 °F 57.9 °F 96% 29.53 in 3.0 mi West 9.2 mph 16.1 mph N/A   Overcast
6:55 AM 57.9 °F 57.0 °F 97% 29.53 in 10.0 mi West 10.4 mph - N/A   Overcast
7:11 AM 57.0 °F 55.9 °F 96% 29.55 in 1.8 mi West 10.4 mph - N/A   Overcast
7:27 AM 57.2 °F 55.4 °F 94% 29.55 in 0.5 mi West 9.2 mph - N/A Fog Fog
7:55 AM 57.0 °F 55.0 °F 93% 29.55 in 0.5 mi West 9.2 mph - N/A Fog Fog
8:35 AM 57.9 °F 55.9 °F 93% 29.55 in 1.5 mi West 9.2 mph - N/A   Overcast
8:55 AM 57.9 °F 55.9 °F 93% 29.55 in 1.8 mi West 10.4 mph - N/A   Overcast
8:58 AM 57.9 °F 55.9 °F 93% 29.56 in 3.0 mi West 9.2 mph - N/A   Overcast
9:28 AM 62.1 °F 57.0 °F 84% 29.55 in 10.0 mi NW 10.4 mph - N/A   Scattered Clouds
9:55 AM 66.0 °F 57.9 °F 75% 29.54 in 10.0 mi WNW 6.9 mph - N/A   Clear
10:55 AM 70.0 °F 57.9 °F 65% 29.52 in 10.0 mi WNW 10.4 mph - N/A   Clear
11:55 AM 71.1 °F 57.0 °F 61% 29.53 in 10.0 mi WNW 15.0 mph 18.4 mph N/A   Clear
12:55 PM 73.0 °F 57.0 °F 57% 29.53 in 10.0 mi WNW 11.5 mph - N/A   Clear
1:55 PM 73.9 °F 57.0 °F 55% 29.54 in 10.0 mi NW 16.1 mph 21.9 mph N/A   Clear
2:55 PM 73.9 °F 55.9 °F 53% 29.55 in 10.0 mi WNW 11.5 mph 26.5 mph N/A   Partly Cloudy
3:55 PM 73.9 °F 55.9 °F 53% 29.55 in 10.0 mi NW 12.7 mph 20.7 mph N/A   Clear
4:55 PM 71.1 °F 55.9 °F 59% 29.58 in 10.0 mi WNW 10.4 mph - N/A   Clear
5:55 PM 69.1 °F 55.0 °F 61% 29.59 in 10.0 mi WNW 8.1 mph - N/A   Clear
6:55 PM 70.0 °F 55.0 °F 59% 29.58 in 10.0 mi WNW 6.9 mph - N/A   Clear
7:55 PM 68.0 °F 55.0 °F 63% 29.59 in 10.0 mi WNW 5.8 mph - N/A   Clear
8:55 PM 64.0 °F 55.0 °F 73% 29.58 in 10.0 mi SSW 4.6 mph - N/A   Clear
9:55 PM 60.1 °F 53.1 °F 78% 29.58 in 10.0 mi Calm Calm - N/A   Clear
10:55 PM 59.0 °F 53.1 °F 81% 29.60 in 10.0 mi WNW 8.1 mph - N/A   Clear
11:55 PM 57.9 °F 52.0 °F 81% 29.60 in 10.0 mi West 5.8 mph - N/A   Clear